Weather History for Cape Newenham, AK

Change the Weather History Date:

Tuesday, February 26, 2013

  Actual Average Record
Temperature  
Mean Temperature 12 °F -  
Max Temperature 23 °F 28 °F 41 °F (2014)
Min Temperature 1 °F 20 °F 1 °F (2001)
Degree Days  
Heating Degree Days 53    
Moisture  
Dew Point 9 °F    
Average Humidity 90    
Maximum Humidity 100    
Minimum Humidity 79    
Precipitation  
Precipitation 0.00 in - - ()
Sea Level Pressure  
Sea Level Pressure 29.40 in    
Wind  
Wind Speed 9 mph (SSW)    
Max Wind Speed 23 mph    
Max Gust Speed 33 mph    
Visibility 2 miles    
Events Snow    
Averages and records for this station are not official NWS values.
T = Trace of Precipitation, MM = Missing Value Source: NWS Daily Summary

Daily Weather History Graph

Daily Weather History Graph

Search for Another Location

Airport:

Trip Planner

Search our weather history database for the weather conditions in past years. The results will help you decide how hot, cold, wet, or windy it might be!

Date:

Astronomy

Feb. 26, 2013 Rise Set
Actual Time 8:50 AM AKST 7:12 PM AKST
Civil Twilight 8:10 AM AKST 7:52 PM AKST
Nautical Twilight 7:24 AM AKST 8:39 PM AKST
Astronomical Twilight 6:37 AM AKST 9:25 PM AKST
Moon 9:14 PM AKST (2/26) 8:34 AM AKST (2/26)
Length of Visible Light 11h 42m
Length of Day
10h 21m
Full, 99% of the Moon is Illuminated
Feb 26
Full
Mar 4
Last Quarter
Mar 11
New
Mar 19
First Quarter
Mar 27
Full

Hourly Weather History & Observations

Time (AKST) Temp. Windchill Dew Point Humidity Pressure Visibility Wind Dir Wind Speed Gust Speed Precip Events Conditions
12:45 AM 1.4 °F -19.9 °F -0.4 °F 92% 29.75 in 8.0 mi NNE 19.6 mph 29.9 mph N/A Snow Light Snow
12:55 AM 1.8 °F -19.5 °F -0.9 °F 88% 29.75 in 8.0 mi North 19.6 mph 33.4 mph N/A Snow Light Snow
1:55 AM 1.8 °F -21.0 °F -0.8 °F 89% 29.73 in 6.0 mi North 23.0 mph 27.6 mph N/A Snow Light Snow
2:25 AM 1.4 °F -19.9 °F -0.4 °F 92% 29.72 in 8.0 mi North 19.6 mph 27.6 mph N/A   Mostly Cloudy
2:55 AM 2.5 °F -19.0 °F -0.2 °F 88% 29.71 in 5.0 mi North 20.7 mph 26.5 mph N/A Snow Light Snow Showers
3:25 AM 3.2 °F -14.6 °F -0.4 °F 85% 29.70 in 4.0 mi NNE 13.8 mph 24.2 mph N/A Snow Light Snow
3:55 AM 2.7 °F -17.8 °F -0.0 °F 88% 29.67 in 4.0 mi North 18.4 mph 29.9 mph N/A Snow Light Snow
4:55 AM 2.5 °F -16.8 °F -0.4 °F 88% 29.63 in 4.0 mi North 16.1 mph 24.2 mph N/A Snow Light Snow
5:05 AM 3.2 °F -12.2 °F -0.4 °F 85% 29.63 in 2.5 mi North 10.4 mph 19.6 mph N/A Snow Light Snow
5:55 AM 2.7 °F -6.8 °F 0.1 °F 89% 29.60 in 1.5 mi North 4.6 mph - N/A Snow Light Snow
6:25 AM 3.2 °F -11.3 °F 1.4 °F 92% 29.59 in 2.0 mi North 9.2 mph - N/A Snow Light Snow
6:45 AM 3.2 °F -10.3 °F 1.4 °F 92% 29.58 in 1.5 mi North 8.1 mph - N/A Snow Light Snow
6:55 AM 3.0 °F -10.5 °F 0.5 °F 89% 29.57 in 2.0 mi North 8.1 mph - N/A Snow Light Snow
7:05 AM 3.2 °F -4.2 °F 1.4 °F 92% 29.56 in 1.5 mi North 3.5 mph - N/A Snow Light Snow
7:25 AM 3.2 °F -4.2 °F 1.4 °F 92% 29.55 in 1.2 mi Variable 3.5 mph - N/A Snow Light Snow
7:45 AM 3.2 °F -9.1 °F 1.4 °F 92% 29.54 in 1.2 mi NNE 6.9 mph - N/A Snow Light Snow
7:55 AM 3.9 °F -3.4 °F 1.6 °F 90% 29.54 in 1.2 mi NNE 3.5 mph - N/A Snow Light Snow
8:05 AM 5.0 °F - 1.4 °F 85% 29.53 in 1.2 mi East 1.2 mph - N/A Snow Light Snow
8:25 AM 5.0 °F -2.1 °F 3.2 °F 92% 29.52 in 1.0 mi North 3.5 mph - N/A Snow Snow
8:45 AM 5.0 °F - 3.2 °F 92% 29.51 in 1.2 mi SSE 2.3 mph - N/A Snow Light Snow
8:55 AM 4.8 °F - 2.7 °F 91% 29.50 in 1.0 mi Variable 1.2 mph - N/A Snow Light Snow
9:05 AM 5.0 °F - 3.2 °F 92% 29.50 in 1.0 mi WNW 1.2 mph - N/A Snow Light Snow
9:25 AM 5.0 °F - 3.2 °F 92% 29.49 in 0.8 mi Variable 1.2 mph - N/A Snow Snow
9:45 AM 5.0 °F - 3.2 °F 92% 29.48 in 1.0 mi Variable 1.2 mph - N/A Snow Snow
9:55 AM 6.1 °F - 3.9 °F 91% 29.48 in 1.0 mi South 2.3 mph - N/A Snow Light Snow
10:05 AM 6.8 °F - 5.0 °F 92% 29.47 in 0.5 mi Variable 2.3 mph - N/A Snow Snow
10:25 AM 6.8 °F - 5.0 °F 92% 29.47 in 0.8 mi Variable 1.2 mph - N/A Snow Snow
10:45 AM 8.6 °F - 6.8 °F 92% 29.46 in 0.8 mi Variable 1.2 mph - N/A Snow Light Snow
10:55 AM 8.2 °F 1.6 °F 5.9 °F 90% 29.45 in 0.8 mi South 3.5 mph - N/A Snow Light Snow
11:05 AM 8.6 °F 2.0 °F 5.0 °F 85% 29.45 in 0.5 mi SSW 3.5 mph - N/A Snow Snow
11:25 AM 8.6 °F 2.0 °F 6.8 °F 92% 29.44 in 0.5 mi South 3.5 mph - N/A Snow Snow
11:45 AM 10.4 °F 4.0 °F 6.8 °F 85% 29.42 in 1.0 mi South 3.5 mph - N/A Snow Light Snow
11:55 AM 10.2 °F 3.8 °F 6.8 °F 86% 29.42 in 1.0 mi South 3.5 mph - N/A Snow Light Snow
12:05 PM 10.4 °F 0.8 °F 6.8 °F 85% 29.41 in 1.5 mi South 5.8 mph - N/A Snow Light Snow
12:55 PM 12.2 °F 4.3 °F 7.9 °F 83% 29.39 in 1.5 mi South 4.6 mph - N/A Snow Light Snow
1:05 PM 12.2 °F 2.9 °F 8.6 °F 85% 29.38 in 3.0 mi South 5.8 mph - N/A Snow Light Snow
1:25 PM 14.0 °F 6.5 °F 8.6 °F 79% 29.37 in 2.0 mi South 4.6 mph - N/A Snow Light Snow
1:45 PM 14.0 °F 6.5 °F 10.4 °F 86% 29.37 in 1.5 mi South 4.6 mph - N/A Snow Light Snow
1:55 PM 14.4 °F 8.6 °F 10.9 °F 86% 29.36 in 1.0 mi South 3.5 mph - N/A Snow Light Snow
2:45 PM 15.8 °F - 12.2 °F 86% 29.33 in 0.8 mi South 2.3 mph - N/A Snow Light Snow
2:55 PM 16.5 °F - 12.6 °F 84% 29.32 in 0.8 mi South 2.3 mph - N/A Snow Light Snow
3:25 PM 17.6 °F - 12.2 °F 79% 29.30 in 1.0 mi South 2.3 mph - N/A Snow Light Snow
3:45 PM 17.6 °F - 14.0 °F 86% 29.29 in 1.8 mi South 2.3 mph - N/A Snow Light Snow
3:55 PM 18.5 °F - 14.2 °F 83% 29.29 in 1.5 mi South 1.2 mph - N/A Snow Light Snow
4:25 PM 19.4 °F - 15.8 °F 86% 29.28 in 0.8 mi NNE 1.2 mph - N/A Snow Snow
4:45 PM 19.4 °F - 14.0 °F 80% 29.27 in 1.2 mi Calm Calm - N/A Snow Light Snow
4:55 PM 19.0 °F - 14.2 °F 81% 29.27 in 1.2 mi SSE 1.2 mph - N/A Snow Light Snow
5:55 PM 19.0 °F - 16.0 °F 88% 29.25 in 1.0 mi WSW 1.2 mph - N/A Snow Light Snow
6:25 PM 19.4 °F - 15.8 °F 86% 29.24 in 1.2 mi Variable 1.2 mph - N/A Snow Light Snow
6:55 PM 18.3 °F - 16.0 °F 91% 29.23 in 1.0 mi Variable 1.2 mph - N/A Snow Light Snow
7:05 PM 17.6 °F - 15.8 °F 93% 29.23 in 1.2 mi South 1.2 mph - N/A Snow Light Snow
7:45 PM 19.4 °F - 17.6 °F 93% 29.21 in 2.0 mi Variable 1.2 mph - N/A Snow Light Snow
7:55 PM 18.7 °F - 17.2 °F 94% 29.21 in 2.0 mi Variable 1.2 mph - N/A Snow Light Snow
8:25 PM 19.4 °F - 17.6 °F 93% 29.21 in 1.8 mi South 1.2 mph - N/A Snow Light Snow
8:46 PM 19.4 °F - 17.6 °F 93% 29.20 in 3.0 mi Variable 1.2 mph - N/A Snow Light Snow
8:55 PM 19.6 °F - 18.7 °F 96% 29.20 in 2.5 mi Variable 1.2 mph - N/A Snow Light Snow
9:06 PM 19.4 °F - 19.4 °F 100% 29.20 in 1.8 mi South 1.2 mph - N/A Snow Light Snow
9:26 PM 21.2 °F - 19.4 °F 93% 29.20 in 2.0 mi Variable 2.3 mph - N/A Snow Light Snow
9:46 PM 21.2 °F - 21.2 °F 100% 29.19 in 3.0 mi South 1.2 mph - N/A Snow Light Snow
9:55 PM 21.2 °F - 20.7 °F 98% 29.19 in 2.5 mi South 1.2 mph - N/A Snow Light Snow
10:06 PM 21.2 °F - 21.2 °F 100% 29.19 in 1.8 mi West 1.2 mph - N/A Snow Light Snow
10:26 PM 21.2 °F - 21.2 °F 100% 29.19 in 1.5 mi West 2.3 mph - N/A Snow Light Snow
10:46 PM 23.0 °F - 21.2 °F 93% 29.18 in 1.2 mi NW 1.2 mph - N/A Snow Light Snow
10:55 PM 22.1 °F - 21.6 °F 98% 29.18 in 1.5 mi West 1.2 mph - N/A Snow Light Snow
11:06 PM 23.0 °F - 21.2 °F 93% 29.18 in 1.5 mi Variable 1.2 mph - N/A Snow Light Snow
11:26 PM 23.0 °F - 21.2 °F 93% 29.18 in 1.2 mi WNW 1.2 mph - N/A Snow Snow
11:46 PM 23.0 °F - 21.2 °F 93% 29.18 in 1.5 mi North 2.3 mph - N/A Snow Light Snow
11:55 PM 23.0 °F - 21.2 °F 93% 29.13 in 1.8 mi NNE 2.3 mph - N/A Snow Light Snow